[[{"header":{"parameterUnit":"m.s-1","parameterCategory":1,"la1":30.2992,"la2":30.254,"lo1":-89.0895,"lo2":-89.0443,"dy":0.0025,"dx":0.0025,"nx":19,"ny":19,"refTime":"2026-04-21T09:00:00:Z","depth":0,"parameterNumber":2,"parameterNumberName":"U-component_of_WINDS"},"data":[0,0,0,-3.0898,-3.0901,-3.1023,-3.1024,-3.1182,-3.1184,0,0,0,0,0,0,0,0,0,0,0,-3.0863,-3.0864,-3.0898,-3.0901,-3.1023,-3.1024,-3.1182,-3.1184,0,0,0,0,0,0,0,0,0,0,0,-3.0862,-3.0864,-3.0865,-3.0901,-3.1023,-3.1024,-3.1182,-3.1089,0,0,0,0,0,0,0,0,0,0,-3.0969,-3.0938,-3.0863,-3.0865,-3.0902,-3.1023,-3.1024,-3.1084,-3.1094,-3.1128,0,-3.1158,0,-3.1173,-3.1195,-3.1195,0,0,0,-3.09,-3.093,-3.0961,-3.0865,-3.0903,-3.1023,-3.0968,-3.109,-3.1102,-3.1141,-3.116,-3.1166,-3.1176,-3.1196,-3.1196,-3.1391,-3.1392,0,0,-3.0893,-3.0886,-3.0953,-3.0969,-3.095,-3.0964,-3.0972,-3.1097,-3.1117,-3.1161,-3.1169,-3.1179,-3.1197,-3.1198,-3.139,-3.1391,0,0,0,-3.0874,-3.0881,-3.091,-3.0963,-3.0985,-3.0967,-3.0976,-3.1111,-3.1121,-3.1171,-3.118,-3.1198,-3.12,-3.1389,-3.139,-3.1429,0,0,0,-3.087,-3.087,-3.0907,-3.0903,-3.0982,-3.1049,-3.0988,-3.1112,-3.1127,-3.118,-3.1198,-3.1201,-3.1388,-3.139,-3.1425,-3.1448,0,0,0,-3.0854,-3.0868,-3.0886,-3.0903,-3.0955,-3.1048,-3.1065,-3.1116,-3.1133,-3.1195,-3.1202,-3.1387,-3.1389,-3.1423,-3.1443,-3.1496,0,0,0,-3.0835,-3.092,-3.0887,-3.0984,-3.0954,-3.1071,-3.1064,-3.1151,-3.121,-3.1199,-3.1388,-3.139,-3.1422,-3.144,-3.1493,-3.1538,-3.1556,0,0,-3.0937,-3.0932,-3.099,-3.0964,-3.1084,-3.1053,-3.1179,-3.124,-3.1253,-3.1344,-3.1349,-3.1427,-3.1443,-3.1495,-3.1665,-3.1679,0,0,0,-3.1019,-3.1061,-3.1094,-3.1149,-3.1198,-3.1241,-3.1283,-3.1306,-3.1383,-3.1298,-3.1461,-3.1471,-3.1502,-3.1524,-3.1536,-3.1563,-3.14,-3.14,-3.14,-3.1152,-3.1164,-3.126,-3.1287,-3.134,-3.1383,-3.1427,-3.1465,-3.1462,-3.15,-3.1527,-3.1628,-3.1654,-3.1663,-3.1691,-3.1553,-3.1553,-3.1553,-3.1553,-3.1301,-3.1361,-3.1354,-3.1445,-3.1457,-3.1534,-3.1578,-3.1574,-3.1646,-3.1609,-3.1637,-3.1594,-3.1679,-3.1703,-3.1556,-3.1556,-3.1556,-3.1555,-3.1555,-3.1388,-3.1419,-3.1445,-3.1525,-3.1586,-3.161,-3.168,-3.1689,-3.1698,-3.1726,-3.1754,-3.1754,-3.1753,-3.1739,-3.1739,-3.174,-3.174,-3.174,-3.1741,-3.1468,-3.1496,-3.1553,-3.1612,-3.1648,-3.1696,-3.174,-3.1776,-3.1818,-3.1819,-3.1819,-3.1812,-3.1685,-3.1652,-3.1746,-3.1745,-3.1744,-3.1744,-3.1743,-3.1613,-3.1581,-3.167,-3.1706,-3.1775,-3.1834,-3.1845,-3.1917,-3.1948,-3.1982,-3.1969,-3.1874,-3.1869,-3.1859,-3.1832,-3.1966,-3.1966,-3.1966,-3.1966,-3.1686,-3.1684,-3.1776,-3.1833,-3.189,-3.1908,-3.2008,-3.2043,-3.2074,-3.2093,-3.2076,-3.2041,-3.2031,-3.2031,-3.2018,-3.1992,-3.2165,-3.2165,-3.2165,-3.1775,-3.1779,-3.1862,-3.1891,-3.1945,-3.1991,-3.2085,-3.215,-3.2179,-3.2174,-3.2109,-3.2101,-3.2045,-3.2026,-3.2018,-3.1996,-3.195,0,0]},{"header":{"parameterUnit":"m.s-1","parameterCategory":1,"la1":30.2992,"la2":30.254,"lo1":-89.0895,"lo2":-89.0443,"dy":0.0025,"dx":0.0025,"nx":19,"ny":19,"refTime":"2026-04-21T09:00:00:Z","depth":0,"parameterNumber":3,"parameterNumberName":"V-component_of_WINDS"},"data":[0,0,0,4.0442,4.0444,4.0521,4.0521,4.0627,4.0628,0,0,0,0,0,0,0,0,0,0,0,4.0427,4.0428,4.0442,4.0444,4.0521,4.0521,4.0627,4.0628,0,0,0,0,0,0,0,0,0,0,0,4.0427,4.0428,4.0429,4.0445,4.0521,4.0521,4.0627,4.0565,0,0,0,0,0,0,0,0,0,0,4.0489,4.0483,4.0428,4.0429,4.0445,4.0521,4.0521,4.0562,4.0569,4.0597,0,4.0625,0,4.0629,4.0636,4.0636,0,0,0,4.0438,4.0478,4.0492,4.0429,4.0446,4.0521,4.0484,4.0566,4.0574,4.0606,4.0627,4.063,4.0631,4.0637,4.0637,4.0821,4.0822,0,0,4.0434,4.0444,4.0486,4.0497,4.0489,4.0482,4.0487,4.0571,4.0593,4.0627,4.0633,4.0632,4.0638,4.0638,4.082,4.0822,0,0,0,4.0426,4.0442,4.0453,4.0493,4.0507,4.0484,4.049,4.0589,4.0592,4.0634,4.0634,4.0638,4.064,4.0819,4.0821,4.0887,0,0,0,4.0423,4.0437,4.0452,4.0459,4.0505,4.055,4.0507,4.0587,4.0596,4.0633,4.0638,4.0641,4.0818,4.082,4.0883,4.0916,0,0,0,4.0419,4.0437,4.0451,4.046,4.0493,4.0548,4.0556,4.0588,4.0596,4.0636,4.0641,4.0817,4.0819,4.0879,4.091,4.0966,0,0,0,4.0418,4.0509,4.0452,4.0553,4.0493,4.059,4.0555,4.0626,4.0669,4.0639,4.0818,4.0821,4.0877,4.0906,4.0962,4.1015,4.1039,0,0,4.0538,4.0524,4.0582,4.0533,4.0643,4.0577,4.0696,4.0725,4.0718,4.0787,4.0791,4.0884,4.0909,4.0966,4.1171,4.119,0,0,0,4.0624,4.0665,4.0692,4.0735,4.076,4.0783,4.0792,4.0802,4.086,4.0756,4.0921,4.0935,4.0968,4.0992,4.1009,4.1035,4.0833,4.0833,4.0832,4.0807,4.0795,4.089,4.0887,4.0928,4.0937,4.0968,4.0982,4.0958,4.0997,4.1016,4.1143,4.1172,4.1184,4.1212,4.1045,4.1045,4.1045,4.1046,4.098,4.1037,4.1002,4.1081,4.1067,4.1133,4.1144,4.1124,4.1181,4.1127,4.1155,4.1095,4.1205,4.1228,4.1051,4.105,4.1049,4.1049,4.1048,4.1098,4.1122,4.1135,4.1193,4.1239,4.1232,4.1289,4.1274,4.126,4.1288,4.1305,4.1304,4.1299,4.1298,4.1298,4.1299,4.1299,4.1299,4.13,4.1214,4.1226,4.1276,4.131,4.1334,4.1364,4.1373,4.1396,4.1416,4.1401,4.1401,4.137,4.122,4.1181,4.1306,4.1305,4.1304,4.1304,4.1303,4.1391,4.1348,4.1427,4.1451,4.1488,4.1534,4.1514,4.1561,4.1578,4.1605,4.157,4.1461,4.1444,4.1432,4.1399,4.1574,4.1574,4.1574,4.1574,4.1488,4.1479,4.1555,4.1594,4.1631,4.1621,4.1707,4.1714,4.1715,4.1723,4.1696,4.1653,4.164,4.1631,4.1613,4.1583,4.18,4.18,4.1801,4.1595,4.1589,4.1666,4.1667,4.1695,4.1718,4.1797,4.1842,4.1834,4.1809,4.1729,4.172,4.1649,4.1627,4.1599,4.1573,4.1517,0,0]}]]